Tracking 30009 objects as of 7-Dec-2024
HD Live streaming from Space Station
objects crossing your sky now

SL-8 R/B

Track SL-8 R/B now!
10-day predictions


NORAD ID: 7686
Int'l Code: 1975-016J
Perigee: 1,463.9 km
Apogee: 1,725.8 km
Inclination: 74.0 °
Period: 117.9 minutes
Semi major axis: 7965 km
RCS: 6.1934 m2 (large)
Launch date: February 28, 1975
Source: Commonwealth of Independent States (former USSR) (CIS)
Launch site: PLESETSK MISSILE AND SPACE COMPLEX (PKMTR)

Note: This is a ROCKET BODY
Your satellite tracking list
Your tracking list is empty




NASA's NSSDC Master Catalog

Two Line Element Set (TLE):
1 07686U 75016J   24341.91958403  .00000061  00000-0  69554-3 0  9998
2 07686  73.9975 148.5916 0164427 356.2320  78.7545 12.21111274218210
Source of the keplerian elements: AFSPC